Weather History for Vacaville, CA

Change the Weather History Date:

Monday, November 14, 2011

  Actual Average Record
Temperature  
Mean Temperature 54 °F -  
Max Temperature 64 °F 64 °F 84 °F (2008)
Min Temperature 42 °F 41 °F 30 °F (1980)
Degree Days  
Heating Degree Days 12    
Growing Degree Days 4 (Base 50)    
Moisture  
Dew Point 47 °F    
Average Humidity 80    
Maximum Humidity 97    
Minimum Humidity 52    
Precipitation  
Precipitation 0.00 in - - ()
Sea Level Pressure  
Sea Level Pressure 30.02 in    
Wind  
Wind Speed 6 mph (NNW)    
Max Wind Speed 12 mph    
Max Gust Speed 20 mph    
Visibility 9 miles    
Events      
Averages and records for this station are not official NWS values.
T = Trace of Precipitation, MM = Missing Value Source: NWS Daily Summary

Daily Weather History Graph

Daily Weather History Graph

Search for Another Location

Airport:

Trip Planner

Search our weather history database for the weather conditions in past years. The results will help you decide how hot, cold, wet, or windy it might be!

Date:

Astronomy

Nov. 14, 2011 Rise Set
Actual Time 6:48 AM PST 4:55 PM PST
Civil Twilight 6:19 AM PST 5:24 PM PST
Nautical Twilight 5:47 AM PST 5:56 PM PST
Astronomical Twilight 5:16 AM PST 6:27 PM PST
Moon 8:09 PM PST (11/14) 10:09 AM PST (11/14)
Length of Visible Light 11h 04m
Length of Day
10h 07m
Waning Gibbous, 86% of the Moon is Illuminated
Nov 14
Waning Gibbous
Nov 18
Last Quarter
Nov 24
New
Dec 2
First Quarter
Dec 10
Full

Hourly Weather History & Observations

Time (PST) Temp. Dew Point Humidity Pressure Visibility Wind Dir Wind Speed Gust Speed Precip Events Conditions
12:53 AM 52.0 °F 48.9 °F 89% 29.95 in 10.0 mi South 11.5 mph - N/A   Mostly Cloudy
1:53 AM 53.1 °F 48.0 °F 83% 29.96 in 10.0 mi South 10.4 mph - N/A   Overcast
2:53 AM 52.0 °F 48.0 °F 86% 29.95 in 10.0 mi SSW 9.2 mph 17.3 mph N/A   Mostly Cloudy
4:53 AM 48.9 °F 45.0 °F 86% 29.96 in 10.0 mi Calm Calm - N/A   Clear
5:53 AM 45.0 °F 44.1 °F 97% 29.99 in 10.0 mi Calm Calm - N/A   Clear
6:53 AM 44.1 °F 43.0 °F 96% 30.00 in 10.0 mi Calm Calm - N/A   Clear
7:53 AM 48.9 °F 46.0 °F 90% 30.03 in 10.0 mi Calm Calm - N/A   Clear
8:25 AM 50.0 °F 46.4 °F 87% 30.05 in 9.0 mi Variable 3.5 mph - N/A   Mostly Cloudy
8:31 AM 50.0 °F 46.4 °F 87% 30.05 in 8.0 mi Variable 3.5 mph - N/A   Mostly Cloudy
8:44 AM 50.0 °F 48.2 °F 94% 30.05 in 6.0 mi North 8.1 mph - N/A   Overcast
8:53 AM 50.0 °F 48.0 °F 93% 30.05 in 6.0 mi North 6.9 mph - N/A   Overcast
9:42 AM 53.6 °F 48.2 °F 82% 30.06 in 8.0 mi North 11.5 mph 19.6 mph N/A   Overcast
9:53 AM 53.1 °F 48.0 °F 83% 30.06 in 8.0 mi North 9.2 mph 17.3 mph N/A   Overcast
10:00 AM 53.6 °F 48.2 °F 82% 30.06 in 8.0 mi North 8.1 mph - N/A   Overcast
10:39 AM 57.2 °F 48.2 °F 72% 30.06 in 9.0 mi NNE 4.6 mph - N/A   Mostly Cloudy
10:51 AM 57.2 °F 48.2 °F 72% 30.06 in 9.0 mi North 6.9 mph - N/A   Scattered Clouds
10:53 AM 57.0 °F 48.0 °F 72% 30.06 in 9.0 mi Variable 6.9 mph - N/A   Scattered Clouds
11:27 AM 59.0 °F 48.2 °F 67% 30.04 in 9.0 mi Variable 3.5 mph - N/A   Mostly Cloudy
11:53 AM 61.0 °F 48.9 °F 64% 30.03 in 10.0 mi Variable 4.6 mph - N/A   Mostly Cloudy
12:53 PM 64.0 °F 48.9 °F 58% 30.01 in 9.0 mi Variable 5.8 mph - N/A   Mostly Cloudy
1:11 PM 64.4 °F 48.2 °F 56% 30.00 in 9.0 mi Variable 4.6 mph - N/A   Mostly Cloudy
1:53 PM 64.0 °F 48.9 °F 58% 30.00 in 9.0 mi North 5.8 mph - N/A   Partly Cloudy
2:53 PM 64.9 °F 48.0 °F 54% 29.99 in 10.0 mi North 5.8 mph - N/A   Partly Cloudy
3:53 PM 64.9 °F 46.9 °F 52% 29.98 in 10.0 mi Variable 3.5 mph - N/A   Clear
5:53 PM 57.0 °F 48.0 °F 72% 30.01 in 10.0 mi Calm Calm - N/A   Clear
6:53 PM 50.0 °F 46.0 °F 86% 30.02 in 10.0 mi Calm Calm - N/A   Clear
7:53 PM 48.9 °F 46.0 °F 90% 30.02 in 10.0 mi Calm Calm - N/A   Clear
8:53 PM 52.0 °F 46.0 °F 80% 30.04 in 10.0 mi SW 4.6 mph - N/A   Clear
9:53 PM 45.0 °F 43.0 °F 93% 30.05 in 10.0 mi Calm Calm - N/A   Clear
10:53 PM 43.0 °F 42.1 °F 97% 30.05 in 9.0 mi Calm Calm - N/A   Clear
11:53 PM 42.1 °F 41.0 °F 96% 30.06 in 7.0 mi Calm Calm - N/A   Clear